This demonstration page uses our WeatherBlox Daily Observations layout. Learn more.

39.92423, -83.80882

Hourly Observations for December 31, 2018

Temp ( °F °C ) Dew Point ( °F °C ) Humidity (%) Winds ( mph kmh ) Pressure ( in mb ) Visibility ( mi km ) Precip ( " mm )
12:56 am 00:56 Clear 34 1.1 31 -0.6 89 89 ESE 7 11 30.12 1020 10 16.0934 0 0
1:56 am 01:56 Clear 34 1.1 32 0 92 92 E 7 11 30.1 1019 10 16.0934 0 0
2:56 am 02:56 Clear 36 2.2 32 0 86 86 ESE 8 13 30.09 1019 10 16.0934 0 0
3:56 am 03:56 Mostly Cloudy 37 2.8 33 0.6 86 86 ESE 7 11 30.09 1019 10 16.0934 0 0
4:56 am 04:56 Cloudy with Light Rain 38 3.3 34 1.1 86 86 ESE 7 11 30.04 1017 10 16.0934 0 0.0254
5:56 am 05:56 Cloudy with Light Rain 38 3.3 35 1.7 89 89 SE 9 15 30.04 1017 10 16.0934 0 0.0254
6:56 am 06:56 Cloudy with Rain 38 3.3 37 2.8 97 97 SE 9 15 30.04 1017 10 16.0934 0.05 1.27
7:56 am 07:56 Cloudy with Light Rain 39 3.9 38 3.3 96 96 ESE 10 17 30 1016 10 16.0934 0.09 2.286
8:56 am 08:56 Cloudy with Rain 40 4.4 40 4.4 100 100 ESE 10 17 29.98 1015 4 6.43736 0.2 5.08
9:05 am 09:05 Cloudy with Rain 41 5 41 5 100 100 ESE 13 20 29.97 1015 5 8.0467 0.02 0.508
9:13 am 09:13 Cloudy with Rain 41 5 41 5 100 100 ESE 10 17 29.97 1015 5 8.0467 0.05 1.27
9:20 am 09:20 Cloudy with Rain 41 5 41 5 100 100 SE 12 19 29.97 1015 4 6.43736 0.06 1.524
9:56 am 09:56 Cloudy with Light Rain 43 6.1 43 6.1 100 100 SE 10 17 29.95 1014 7 11.26538 0.08 2.032
10:56 am 10:56 Cloudy with Light Rain 44 6.7 44 6.7 100 100 SE 15 24 29.9 1012 7 11.26538 0 0.0254
11:56 am 11:56 Cloudy with Rain 44 6.7 44 6.7 100 100 SE 13 20 29.83 1010 6 9.65604 0.18 4.572
12:56 pm 12:56 Cloudy with Rain 47 8.3 47 8.3 100 100 SE 20 31 29.74 1007 8 12.87472 0.07 1.778
1:56 pm 13:56 Cloudy with Light Rain 50 10 50 10 100 100 SSE 17 28 29.69 1005 10 16.0934 0.13 3.302
2:56 pm 14:56 Cloudy with Light Rain 54 12.2 54 12.2 100 100 S 12 19 29.65 1004 10 16.0934 0.09 2.286
3:45 pm 15:45 Cloudy with Rain 55 13 55 13 100 100 S 14 22 29.65 1004 9 14.48406 0.03 0.762
3:56 pm 15:56 Cloudy with Rain 57 13.9 57 13.9 100 100 S 13 20 29.65 1004 7 11.26538 0.08 2.032
4:56 pm 16:56 Cloudy with Rain 59 15 59 15 100 100 S 9 15 29.61 1003 8 12.87472 0.2 5.08
5:49 pm 17:49 Cloudy with Rain 61 16 61 16 100 100 SSW 22 35 29.59 1002 8 12.87472 0.13 3.302
5:56 pm 17:56 Cloudy with Rain 61 16.1 60 15.6 97 97 SW 30 48 29.62 1003 7 11.26538 0.15 3.81
6:12 pm 18:12 Cloudy with Light Rain 61 16 61 16 100 100 SSW 18 30 29.59 1002 10 16.0934 0.02 0.508
6:33 pm 18:33 Cloudy with Light Rain 61 16 59 15 94 94 S 10 17 29.56 1001 10 16.0934 0.04 1.016
6:56 pm 18:56 Cloudy 60 15.6 58 14.4 93 93 S 14 22 29.58 1002 10 16.0934 0.04 1.016
7:56 pm 19:56 Mostly Cloudy 59 15 57 13.9 93 93 SW 18 30 29.6 1003 10 16.0934 0 0
8:10 pm 20:10 Mostly Cloudy 59 15 57 14 94 94 SW 24 39 29.56 1001 10 16.0934 0 0
8:56 pm 20:56 Cloudy 59 15 55 12.8 87 87 SW 28 44 29.63 1003 10 16.0934 0 0
9:56 pm 21:56 Cloudy 58 14.4 53 11.7 84 84 WSW 22 35 29.65 1004 10 16.0934 0 0
10:29 pm 22:29 Cloudy 55 13 48 9 77 77 WSW 26 43 29.68 1005 10 16.0934 0 0.0254
10:56 pm 22:56 Cloudy 55 12.8 48 8.9 77 77 WSW 23 37 29.71 1006 10 16.0934 0 0.0254
11:18 pm 23:18 Cloudy 54 12 48 9 82 82 W 24 39 29.71 1006 10 16.0934 0 0
11:56 pm 23:56 Cloudy 51 10.6 44 6.7 77 77 WSW 28 44 29.78 1008 10 16.0934 0 0

Powered by AerisWeather